User: anonymous   Login
Location: Caltech
(34.1382°N, 118.1253°W)
Time: 16:02:21
(UTC-08:00)
Language:

Cosmos 1733 Rocket - Orbit

View from above orbital plane
View from above orbital plane
View from above satellite
View from above satellite

Ground track
Ground track

The orbit data is extracted from the following two-line orbital elements,

1 16612U 86018B   14326.88639514  .00000602  00000-0  69856-4 0   761
2 16612 082.5173 095.6402 0017642 010.7761 142.4523 14.83711819452445
Epoch (UTC): 22 November 2014 21:16:24
Eccentricity: 0.0017642
inclination: 82.5173°
perigee height: 605 km
apogee height: 630 km
right ascension of ascending node: 95.6402°
argument of perigee: 10.7761°
revolutions per day: 14.83711819
mean anomaly at epoch: 142.4523°
orbit number at epoch: 45244

The dashed part of the orbit path shows where the satellite is in the earth's shadow,  

DLR